Regional Weather Roundup
Issued by NWS

Home | Current Version | Previous Version | Text Only | Print | Product List | Glossary On
Versions: 1 2 3 4 5 6 7 8 9 10 11 12 13 14 15 16 17 18 19 20 21 22 23 24 25 26 27 28 29 30 31 32 33 34 35 36 37 38 39 40 41 42 43 44 45 46 47 48 49 50
000
ASUS43 KTOP 281008
RWRKS

WEATHER ROUNDUP FOR KANSAS
NATIONAL WEATHER SERVICE GOODLAND KS
500 AM CDT MON JUL 28 2014

NOTE:  "FAIR" INDICATES FEW OR NO CLOUDS BELOW 12,000 FEET WITH NO
SIGNIFICANT WEATHER AND/OR OBSTRUCTIONS TO VISIBILITY.

KSZ001>006-013>018-027>032-041>047-281100-
NORTHWEST KANSAS

CITY           SKY/WX    TMP DP  RH WIND       PRES   REMARKS
GOODLAND       CLOUDY    62  53  72 S7        30.32S
HAYS           CLEAR     64  52  63 NE9       30.25R
HILL CITY      PTCLDY    61  54  77 N3        30.27R
RUSSELL        CLEAR     62  53  72 N7        30.23R
$$

KSZ061>065-074>080-084>089-281100-
SOUTHWEST KANSAS

CITY           SKY/WX    TMP DP  RH WIND       PRES   REMARKS
DODGE CITY     MOCLDY    66  54  65 E5        30.25S
ELKHART          N/A     67  55  65 SW14        N/A
GARDEN CITY    MOCLDY    68  59  73 N6        30.28R
GREAT BEND     PTCLDY    66  55  68 NE6       30.22R
LIBERAL        CLOUDY    70  57  64 NW6       30.29R
PRATT          CLEAR     68  52  56 NE3       30.23S
$$

KSZ066>073-081>083-090>101-281100-
SOUTHEAST KANSAS

CITY           SKY/WX    TMP DP  RH WIND       PRES   REMARKS
CHANUTE        CLEAR     61  57  87 N5        30.16S
COFFEYVILLE    CLEAR     64  59  83 NE3       30.15R HAZE
HUTCHINSON     CLEAR     67  56  67 NE7       30.21R
MEDICINE LODGE   N/A     68  58  70 CALM      30.19S
NEWTON         PTCLDY    64  54  68 NE7       30.24R
PARSONS        CLEAR     62  57  83 CALM      30.17R
WICHITA INTL   PTCLDY    68  56  65 NE3       30.19R
WICHITA JABRA  PTCLDY    61  57  87 N7        30.19R
WICHITA MCCONL CLEAR     65  59  82 NE5       30.19R
WINFIELD       CLEAR     63  58  83 CALM      30.19R
$$

KSZ007>012-019>026-033>040-048>060-102>105-281100-
NORTHEAST KANSAS

CITY           SKY/WX    TMP DP  RH WIND       PRES   REMARKS
CONCORDIA      CLEAR     62  58  86 NE7       30.24R
EMPORIA        CLEAR     60  57  89 W3        30.19R
LAWRENCE       CLEAR     59  56  89 NW7       30.18R
MANHATTAN      CLEAR     64  57  78 CALM      30.20R
MARYSVILLE     CLEAR     57  55  94 NW3       30.22S
OLATHE IND     CLEAR     61  58  90 NW9       30.18R
OLATHE EXE     CLEAR     64  57  78 N6        30.16R
SALINA         PTCLDY    64  56  75 NW6       30.22R
TOPEKA BILLARD CLEAR     64  58  80 N7        30.18S
TOPEKA FORBES  CLEAR     62  57  83 N6        30.18S
$$


USA.gov is the U.S. government's official web portal to all federal, state and local government web resources and services.